User: anonymous   Login
Location: Unspecified
(0.0000°N, 0.0000°E)
Time: 08:33:34
(UTC+00:00)
Language:

ORS OBJECT Z - Orbit

View from above orbital plane
View from above orbital plane
View from above satellite
View from above satellite

Ground track
Ground track

The orbit data is extracted from the following two-line orbital elements,

1 39403U 13064Z   19345.45782069 +.00008931 +00000-0 +10535-3 0  9994
2 39403 040.5212 251.7575 0005409 276.8803 083.1405 15.61317924338711
Epoch (UTC): 11 December 2019 10:59:15
Eccentricity: 0.0005409
inclination: 40.5212°
perigee height: 380 km
apogee height: 387 km
right ascension of ascending node: 251.7575°
argument of perigee: 276.8803°
revolutions per day: 15.61317924
mean anomaly at epoch: 83.1405°
orbit number at epoch: 33871

The dashed part of the orbit path shows where the satellite is in the earth's shadow,  

DLR